Lake Lanier Weather Center

Moon Phase Calendar



Lake Lanier Water Level
Online Cameras

 


      

Current Conditions in Gainesville
5/16/2022 2:06:54 PM

83°F
Feels Like 84
Clear
Humidity
48%
Pressure
29.85"
Wind
13.8 mph (W)
Dew Point
61°F
UV Index
9/10 (Very High)
Visibility
6 mi

Hourly Forecast

Date & Time Mon, May 16
2:00 PM
Mon, May 16
3:00 PM
Mon, May 16
4:00 PM
Mon, May 16
5:00 PM
Mon, May 16
6:00 PM
Mon, May 16
7:00 PM
Mon, May 16
8:00 PM
Mon, May 16
9:00 PM
Mon, May 16
10:00 PM
Mon, May 16
11:00 PM
Tue, May 17
12:00 AM
Tue, May 17
1:00 AM
Tue, May 17
2:00 AM
Tue, May 17
3:00 AM
Tue, May 17
4:00 AM
Tue, May 17
5:00 AM
Tue, May 17
6:00 AM
Tue, May 17
7:00 AM
Tue, May 17
8:00 AM
Tue, May 17
9:00 AM
Tue, May 17
10:00 AM
Tue, May 17
11:00 AM
Tue, May 17
12:00 PM
Tue, May 17
1:00 PM
Tue, May 17
2:00 PM
Tue, May 17
3:00 PM
Tue, May 17
4:00 PM
Tue, May 17
5:00 PM
Tue, May 17
6:00 PM
Tue, May 17
7:00 PM
Tue, May 17
8:00 PM
Tue, May 17
9:00 PM
Tue, May 17
10:00 PM
Tue, May 17
11:00 PM
Wed, May 18
12:00 AM
Wed, May 18
1:00 AM
Wed, May 18
2:00 AM
Wed, May 18
3:00 AM
Wed, May 18
4:00 AM
Wed, May 18
5:00 AM
Wed, May 18
6:00 AM
Wed, May 18
7:00 AM
Wed, May 18
8:00 AM
Wed, May 18
9:00 AM
Wed, May 18
10:00 AM
Wed, May 18
11:00 AM
Wed, May 18
12:00 PM
Wed, May 18
1:00 PM
Condition
Clear

Clear

Clear

Clear

Clear

Clear

Clear

Clear

Clear

Clear

Clear

Clear

Clear

Clear

Clear

Clear

Clear

Clear

Clear

Clear

Clear

Clear

Clear

Clear

Clear

Clear

Clear

Clear

Clear

Clear

Clear

Clouds

Clouds

Clouds

Clouds

Clouds

Clouds

Clouds

Clear

Clouds

Clouds

Clouds

Clouds

Clouds

Clouds

Clouds

Clouds

Clouds
Temperature 83°F83°F84°F83°F82°F77°F71°F67°F65°F64°F62°F59°F57°F55°F54°F53°F53°F53°F59°F65°F71°F74°F78°F79°F82°F83°F83°F83°F82°F78°F71°F66°F64°F63°F61°F61°F60°F58°F58°F57°F57°F57°F62°F67°F73°F77°F81°F85°F
Feels Like 84°F83°F83°F82°F81°F76°F70°F66°F64°F62°F60°F58°F56°F54°F53°F52°F51°F52°F58°F64°F70°F73°F77°F79°F80°F81°F81°F81°F81°F78°F71°F65°F63°F62°F60°F59°F59°F57°F57°F56°F56°F56°F61°F67°F72°F77°F80°F82°F
Cloudiness 0%4%5%6%6%6%5%0%0%0%0%0%0%0%0%0%0%0%0%0%0%0%0%0%0%1%3%4%3%2%3%69%80%87%82%86%88%14%10%26%21%18%26%54%49%36%28%23%
Visibility 6 mi6 mi6 mi6 mi6 mi6 mi6 mi6 mi6 mi6 mi6 mi6 mi6 mi6 mi6 mi6 mi6 mi6 mi6 mi6 mi6 mi6 mi6 mi6 mi6 mi6 mi6 mi6 mi6 mi6 mi6 mi6 mi6 mi6 mi6 mi6 mi6 mi6 mi6 mi6 mi6 mi6 mi6 mi6 mi6 mi6 mi6 mi6 mi
Precipitation 52%0%0%0%0%0%0%0%0%0%0%0%0%0%0%0%0%0%0%0%0%0%0%0%0%0%0%0%0%0%0%0%0%0%0%0%0%0%0%0%0%0%0%0%0%0%0%0%
Humidity 48%45%41%37%38%41%50%51%54%55%59%65%69%73%77%80%81%80%70%57%47%40%36%33%30%29%28%27%30%46%57%62%64%62%64%65%68%71%74%76%79%79%72%61%51%43%36%30%
Dew Point 61°F60°F57°F54°F54°F51°F52°F49°F48°F47°F47°F47°F46°F47°F47°F47°F47°F47°F49°F49°F50°F49°F49°F47°F48°F47°F46°F46°F48°F56°F55°F52°F51°F50°F49°F49°F49°F49°F49°F50°F50°F50°F52°F53°F53°F53°F52°F50°F
Pressure 29.85"29.85"29.85"29.83"29.83"29.83"29.88"29.91"29.94"29.94"29.94"29.94"29.94"29.97"30"30"30.03"30.03"30.06"30.06"30.06"30.06"30.06"30.03"30"29.97"29.97"29.94"29.94"29.97"30"30.03"30.03"30.03"30.03"30.03"30.03"30.03"30.03"30.06"30.09"30.09"30.09"30.09"30.09"30.06"30.03"30"
Wind Speed 11.4 mph13.6 mph12.3 mph11.8 mph11.1 mph10.2 mph8.7 mph8.2 mph8.4 mph8.4 mph7.3 mph5.9 mph4.6 mph4 mph3.9 mph3.8 mph3.4 mph3.4 mph2.5 mph2.4 mph2.3 mph2.3 mph2.5 mph4.2 mph2.9 mph3 mph4 mph4.2 mph2.8 mph3.4 mph6.6 mph5.2 mph4.2 mph3.5 mph2.8 mph3.4 mph3.9 mph3.2 mph2.7 mph3 mph3.3 mph3.4 mph2.8 mph2.9 mph3.2 mph4.9 mph6.6 mph7 mph
Wind
Direction
285°
WNW
292°
WNW
304°
NW
314°
NW
316°
NW
319°
NW
326°
NW
330°
NNW
334°
NNW
336°
NNW
337°
NNW
336°
NNW
342°
NNW
356°
N
13°
NNE
23°
NNE
13°
NNE
353°
N
329°
NNW
315°
NW
289°
WNW
159°
SSE
191°
S
228°
SW
246°
WSW
254°
WSW
264°
W
278°
W
274°
W
266°
W
283°
WNW
306°
NW
334°
NNW
27°
NNE
40°
NE
24°
NNE
19°
NNE
30°
NNE
57°
ENE
46°
NE
29°
NNE
42°
NE
77°
ENE
109°
ESE
146°
SE
164°
SSE
177°
S
189°
S

Daily Forecast

Date High Low Precip. Humidity
Today
May 16

Rain
84 °F
61 °F
88%
47%
Tuesday
May 17

Clear
83 °F
53 °F
0%
33%
Wednesday
May 18

Clouds
88 °F
57 °F
9%
26%
Thursday
May 19

Clouds
93 °F
66 °F
6%
34%
Friday
May 20

Clouds
93 °F
67 °F
0%
24%
Saturday
May 21

Rain
87 °F
65 °F
100%
48%
Sunday
May 22

Rain
76 °F
62 °F
100%
86%
Monday
May 23

Clouds
78 °F
52 °F
19%
55%
Tuesday
May 24

Clouds
78 °F
55 °F
0%
48%
Wednesday
May 25

Rain
62 °F
54 °F
100%
98%
Thursday
May 26

Clear
79 °F
50 °F
0%
28%
Friday
May 27

Clear
84 °F
53 °F
0%
25%
Saturday
May 28

Clear
90 °F
58 °F
0%
21%
Sunday
May 29

Clouds
90 °F
62 °F
7%
44%
Monday
May 30

Rain
79 °F
63 °F
100%
68%
Tuesday
May 31

Rain
76 °F
64 °F
100%
86%

Temperature 8-14 Day Outlook



Precipitation 8-14 Day Outlook






About Us
Contact Us
Site Map
Search Site
Advertise With Us
   
www.DiscoverLanier.com
THE LAKE LANIER WEBSITE

Copyright 2022, Lakes Online
Privacy    |    Legal